Regional Weather Roundup
Issued by NWS

Home | Current Version | Previous Version | Text Only | Print | Product List | Glossary On
Versions: 1 2 3 4 5 6 7 8 9 10 11 12 13 14 15 16 17 18 19 20 21 22 23 24 25 26 27 28 29 30 31 32 33 34 35 36 37 38 39 40 41 42 43 44 45 46 47 48 49 50
558
ASUS44 KJAN 260210
RWRMS

MISSISSIPPI HOURLY WEATHER ROUNDUP
NATIONAL WEATHER SERVICE JACKSON MS
900 PM CDT FRI JUL 25 2014

NOTE: "FAIR: INDICATES FEW OR NO CLOUDS BELOW 12,000 FEET WITH NO
SIGNIFICANT WEATHER AND/OR OBSTRUCTIONS TO VISIBILITY.

MSZ001>002-007>008-010>013-018>021-025>028-034>036-260300-
NORTHWEST MISSISSIPPI

CITY           SKY/WX    TMP DP  RH WIND       PRES   REMARKS
CLARKSDALE     FAIR      77  68  73 CALM      29.98S
CLEVELAND      FAIR      76  73  87 CALM      29.97S
GREENWOOD      CLEAR     72  68  87 CALM      29.99R
GREENVILLE     CLEAR     76  72  87 E5        29.97F
GRENADA        FAIR      72  68  88 CALM      29.98F
OLIVE BRANCH   CLEAR     73  72  94 S3        29.98F
OXFORD         FAIR      72  68  88 CALM      30.01R
TUNICA         PTCLDY    73  66  78 S3        29.98R
$$

MSZ003>006-009-014>017-022>024-029>033-037>039-260300-
NORTHEAST MISSISSIPPI

CITY           SKY/WX    TMP DP  RH WIND       PRES   REMARKS
BELMONT        FAIR      71  68  89 CALM      30.00R
COLUMBUS AFB   CLEAR     71  67  88 CALM      29.99S
CORINTH        FAIR      73  66  78 CALM      29.97F
GOLDN TRIANGLE CLEAR     73  64  73 CALM      30.00R
STARKVILLE     FAIR      68  64  88 CALM      30.00R
TUPELO         CLEAR     76  66  71 CALM      29.98S
$$

MSZ040-058-260300-
CENTRAL MISSISSIPPI

CITY           SKY/WX    TMP DP  RH WIND       PRES   REMARKS
JACKSON INTL   PTCLDY    78  73  84 CALM      29.99R
JACKSON HAWKNS CLEAR     82  71  69 CALM      30.00R
MERIDIAN KEY   CLEAR     78  72  81 CALM      30.00R
MERIDIAN NAS   PTCLDY    76  71  85 CALM      30.00R
RAYMOND        FAIR      77  72  83 CALM      30.00R HAZE
VICKSBURG      CLEAR     77  74  90 E3        29.98S
$$

MSZ059>079-260300-
SOUTH MISSISSIPPI

CITY           SKY/WX    TMP DP  RH WIND       PRES   REMARKS
BROOKHAVEN     FAIR      79  77  94 CALM      30.02R FOG
COLUMBIA       FAIR      79  77  94 CALM      29.99R
HATTIESBURG    PTCLDY    82  75  79 CALM      30.00R
MCCOMB         PTCLDY    79  75  87 CALM      30.00R
NATCHEZ        CLEAR     81  75  83 CALM      29.99R
PINE BELT      PTCLDY    79  72  78 CALM      30.01R
$$

MSZ080>082-260300-
COASTAL MISSISSIPPI

CITY           SKY/WX    TMP DP  RH WIND       PRES   REMARKS
BILOXI         CLOUDY    82  79  92 NE9       30.00R HX  92
PASCAGOULA     CLOUDY    79  75  87 N5        30.01R
GULFPORT       CLOUDY    83  77  82 CALM      29.99R HX  92
$$



USA.gov is the U.S. government's official web portal to all federal, state and local government web resources and services.